TimeMST,TemperatureF,Dew PointF,Humidity,Sea Level PressureIn,VisibilityMPH,Wind Direction,Wind SpeedMPH,Gust SpeedMPH,PrecipitationIn,Events,Conditions,WindDirDegrees,DateUTC
12:04 AM,28.4,26.6,93,29.76,1.8,NNE,4.6,-,0.00,Snow,Light Snow,30,2013-02-21 07:04:00
12:27 AM,28.4,26.6,93,29.77,1.2,NNE,3.5,-,0.01,Snow,Light Snow,20,2013-02-21 07:27:00
12:34 AM,28.4,26.6,93,29.77,1.5,Calm,Calm,-,0.02,Snow,Light Snow,0,2013-02-21 07:34:00
12:44 AM,28.4,26.6,93,29.77,3.0,Calm,Calm,-,0.02,Snow,Light Snow,0,2013-02-21 07:44:00
12:53 AM,28.0,26.1,92,29.78,5.0,Calm,Calm,-,0.02,Snow,Light Snow,0,2013-02-21 07:53:00
1:17 AM,28.4,26.6,93,29.77,1.8,Calm,Calm,-,0.00,Snow,Light Snow,0,2013-02-21 08:17:00
1:26 AM,28.4,26.6,93,29.77,2.0,NW,3.5,-,0.00,Snow,Light Snow,320,2013-02-21 08:26:00
1:36 AM,26.6,24.8,93,29.78,5.0,NW,4.6,-,0.00,Snow,Light Snow,310,2013-02-21 08:36:00
1:53 AM,27.0,25.0,92,29.79,5.0,NW,3.5,-,0.00,Snow,Light Snow,310,2013-02-21 08:53:00
2:15 AM,26.6,24.8,93,29.78,3.0,NNW,3.5,-,0.00,Snow,Light Snow,330,2013-02-21 09:15:00
2:53 AM,27.0,25.0,92,29.79,1.5,Calm,Calm,-,0.00,Snow,Light Snow,0,2013-02-21 09:53:00
3:32 AM,26.6,24.8,93,29.78,2.5,NNW,4.6,-,0.01,Snow,Light Snow,330,2013-02-21 10:32:00
3:51 AM,26.6,24.8,93,29.78,3.0,NNW,4.6,-,0.01,Snow,Light Snow,330,2013-02-21 10:51:00
3:53 AM,26.1,25.0,96,29.81,3.0,NNW,4.6,-,0.01,Snow,Light Snow,330,2013-02-21 10:53:00
4:53 AM,25.0,23.0,92,29.81,7.0,North,5.8,-,0.00,Snow,Light Snow,350,2013-02-21 11:53:00
5:34 AM,24.8,21.2,86,29.81,10.0,Calm,Calm,-,0.00,,Overcast,0,2013-02-21 12:34:00
5:53 AM,25.0,21.9,88,29.85,7.0,East,4.6,-,0.00,Snow,Light Snow,80,2013-02-21 12:53:00
6:07 AM,24.8,21.2,86,29.80,7.0,Calm,Calm,-,0.00,Snow,Light Snow,0,2013-02-21 13:07:00
6:53 AM,23.0,21.0,92,29.88,6.0,NW,3.5,-,0.00,Snow,Light Snow,320,2013-02-21 13:53:00
7:22 AM,24.8,21.2,86,29.84,2.5,North,5.8,-,0.00,Snow,Light Snow,360,2013-02-21 14:22:00
7:33 AM,24.8,21.2,86,29.85,3.0,North,6.9,-,0.00,Snow,Light Snow,10,2013-02-21 14:33:00
7:51 AM,24.8,21.2,86,29.85,4.0,NNE,4.6,-,0.00,Snow,Light Snow,20,2013-02-21 14:51:00
7:53 AM,24.1,21.0,88,29.90,4.0,North,4.6,-,0.00,Snow,Light Snow,10,2013-02-21 14:53:00
8:20 AM,24.8,19.4,80,29.87,4.0,NNE,6.9,-,0.00,Snow,Light Snow,20,2013-02-21 15:20:00
8:28 AM,24.8,19.4,80,29.87,4.0,North,8.1,-,0.00,Snow,Light Snow,10,2013-02-21 15:28:00
8:53 AM,23.0,19.0,85,29.93,10.0,Calm,Calm,-,0.00,,Overcast,0,2013-02-21 15:53:00
9:53 AM,25.0,21.0,85,29.94,10.0,NNW,4.6,-,N/A,,Mostly Cloudy,340,2013-02-21 16:53:00
10:53 AM,28.0,21.0,75,29.94,10.0,North,8.1,-,N/A,,Clear,350,2013-02-21 17:53:00
11:53 AM,30.9,21.0,67,29.93,10.0,North,6.9,-,N/A,,Overcast,350,2013-02-21 18:53:00
12:53 PM,32.0,21.9,66,29.92,10.0,NNW,6.9,-,N/A,,Partly Cloudy,330,2013-02-21 19:53:00
1:53 PM,32.0,19.0,59,29.91,10.0,NNW,8.1,-,0.00,,Overcast,330,2013-02-21 20:53:00
2:53 PM,32.0,17.1,54,29.92,10.0,North,10.4,-,N/A,,Mostly Cloudy,350,2013-02-21 21:53:00
3:53 PM,33.1,17.1,52,29.93,10.0,North,8.1,19.6,N/A,,Overcast,360,2013-02-21 22:53:00
4:53 PM,33.1,16.0,50,29.94,10.0,North,11.5,18.4,N/A,,Mostly Cloudy,360,2013-02-21 23:53:00
5:53 PM,30.9,17.1,57,29.96,10.0,NNE,9.2,17.3,N/A,,Overcast,20,2013-02-22 00:53:00
6:53 PM,27.0,17.1,66,30.01,10.0,NNE,5.8,-,N/A,,Clear,30,2013-02-22 01:53:00
7:53 PM,25.0,17.1,72,30.03,10.0,NNE,5.8,-,N/A,,Clear,30,2013-02-22 02:53:00
8:53 PM,24.1,16.0,71,30.05,10.0,NNE,6.9,-,N/A,,Clear,30,2013-02-22 03:53:00
9:53 PM,24.1,12.9,62,30.05,10.0,NNE,4.6,-,N/A,,Clear,30,2013-02-22 04:53:00
10:53 PM,21.0,14.0,74,30.05,10.0,NE,4.6,-,N/A,,Clear,50,2013-02-22 05:53:00
11:53 PM,18.0,12.9,81,30.06,10.0,North,4.6,-,N/A,,Clear,360,2013-02-22 06:53:00